Tracking 17699 objects as of 31-May-2016
HD Live streaming from Space Station
objects crossing your sky now

OXP 1

Track OXP 1 now!
10-day predictions
OXP 1 is classified as:


NORAD ID: 22489
Int'l Code: 1993-009A
Perigee: 720.9 km
Apogee: 778.8 km
Inclination: 25.0 °
Period: 99.7 minutes
Semi major axis: 7120 km
RCS: 1.9581 m2 (large)
Launch date: February 9, 1993
Source: United States (US)
Launch site: AIR FORCE EASTERN TEST RANGE (AFETR)
Your satellite tracking list
Your tracking list is empty





NASA's NSSDC Master Catalog

Two Line Element Set (TLE):
1 22489U 93009A   16152.17701678  .00000257  00000-0  20441-4 0  9997
2 22489  24.9639 142.4489 0040667 261.6771  97.9124 14.44795620230228
Source of the keplerian elements: AFSPC

N2YO: 699